| time (UTC) | temp F | wind direction | speed MPH | gust MPH | rain 1hr in | rain 24hr in | rain mn in | humidity % | barometer mb |
| 20260505052002 | 95 | 0 | 0.0 | 0.0 | 0.00 | 0.00 | 0.00 | 45 | 977.0 |
| 20260505050938 | 95 | 0 | 0.0 | 0.0 | 0.00 | 0.00 | 0.00 | 45 | 977.0 |
| 20260505041734 | 95 | 0 | 0.0 | 0.0 | 0.00 | 0.00 | 0.00 | 45 | 978.0 |
| 20260505040710 | 95 | 0 | 0.0 | 0.0 | 0.00 | 0.00 | 0.00 | 45 | 978.0 |
| 20260505035644 | 95 | 0 | 0.0 | 0.0 | 0.00 | 0.00 | 0.00 | 45 | 978.0 |
| 20260505034620 | 95 | 0 | 0.0 | 0.0 | 0.00 | 0.00 | 0.00 | 46 | 978.0 |
| 20260505033803 | 95 | 0 | 0.0 | 0.0 | 0.00 | 0.00 | 0.00 | 46 | 978.0 |
| 20260505032531 | 95 | 0 | 0.0 | 0.0 | 0.00 | 0.00 | 0.00 | 46 | 978.0 |
| 20260505031507 | 95 | 0 | 0.0 | 0.0 | 0.00 | 0.00 | 0.00 | 46 | 978.0 |
| 20260505030443 | 95 | 0 | 0.0 | 0.0 | 0.00 | 0.00 | 0.00 | 46 | 978.0 |
| 20260505025419 | 95 | 0 | 0.0 | 0.0 | 0.00 | 0.00 | 0.00 | 46 | 979.0 |
| 20260505024354 | 95 | 0 | 0.0 | 0.0 | 0.00 | 0.00 | 0.00 | 46 | 979.0 |
| 20260505023330 | 95 | 0 | 0.0 | 0.0 | 0.00 | 0.00 | 0.00 | 46 | 979.0 |
| 20260505022306 | 95 | 0 | 0.0 | 0.0 | 0.00 | 0.00 | 0.00 | 46 | 978.0 |
| 20260505021246 | 94 | 0 | 0.0 | 0.0 | 0.00 | 0.00 | 0.00 | 47 | 978.0 |
| 20260505020218 | 94 | 0 | 0.0 | 0.0 | 0.00 | 0.00 | 0.00 | 47 | 978.0 |
| 20260505015153 | 94 | 0 | 0.0 | 0.0 | 0.00 | 0.00 | 0.00 | 47 | 978.0 |
| 20260505014129 | 94 | 0 | 0.0 | 0.0 | 0.00 | 0.00 | 0.00 | 47 | 978.0 |
| 20260505013104 | 94 | 0 | 0.0 | 0.0 | 0.00 | 0.00 | 0.00 | 47 | 978.0 |
| 20260505012040 | 94 | 0 | 0.0 | 0.0 | 0.00 | 0.00 | 0.00 | 47 | 978.0 |
| 20260505011016 | 94 | 0 | 0.0 | 0.0 | 0.00 | 0.00 | 0.00 | 48 | 978.0 |
| 20260505005952 | 92 | 0 | 0.0 | 0.0 | 0.00 | 0.00 | 0.00 | 50 | 978.0 |
| 20260505004927 | 90 | 0 | 0.0 | 0.0 | 0.00 | 0.00 | 0.00 | 53 | 978.0 |
| 20260505003903 | 91 | 0 | 0.0 | 0.0 | 0.00 | 0.00 | 0.00 | 52 | 978.0 |
| 20260505002839 | 91 | 0 | 0.0 | 0.0 | 0.00 | 0.00 | 0.00 | 53 | 978.0 |
| 20260505001815 | 90 | 0 | 0.0 | 0.0 | 0.00 | 0.00 | 0.00 | 52 | 977.0 |
| 20260505000751 | 90 | 0 | 0.0 | 0.0 | 0.00 | 0.00 | 0.00 | 52 | 977.0 |
| 20260504235727 | 89 | 0 | 0.0 | 0.0 | 0.00 | 0.00 | 0.00 | 55 | 977.0 |
| 20260504234702 | 89 | 0 | 0.0 | 0.0 | 0.00 | 0.00 | 0.00 | 54 | 977.0 |
| 20260504233638 | 89 | 0 | 0.0 | 0.0 | 0.00 | 0.00 | 0.00 | 54 | 977.0 |
| 20260504232614 | 89 | 0 | 0.0 | 0.0 | 0.00 | 0.00 | 0.00 | 54 | 977.0 |
| 20260504231550 | 91 | 0 | 0.0 | 0.0 | 0.00 | 0.00 | 0.00 | 52 | 977.0 |
| 20260504230525 | 90 | 0 | 0.0 | 0.0 | 0.00 | 0.00 | 0.00 | 52 | 977.0 |
| 20260504225501 | 91 | 0 | 0.0 | 0.0 | 0.00 | 0.00 | 0.00 | 52 | 976.0 |
| 20260504224437 | 90 | 0 | 0.0 | 0.0 | 0.00 | 0.00 | 0.00 | 52 | 976.0 |
| 20260504223412 | 90 | 0 | 0.0 | 0.0 | 0.00 | 0.00 | 0.00 | 52 | 976.0 |
| 20260504222348 | 90 | 0 | 0.0 | 0.0 | 0.00 | 0.00 | 0.00 | 52 | 976.0 |
| 20260504221324 | 90 | 0 | 0.0 | 0.0 | 0.00 | 0.00 | 0.00 | 51 | 976.0 |
| 20260504220300 | 90 | 0 | 0.0 | 0.0 | 0.00 | 0.00 | 0.00 | 52 | 976.0 |
| 20260504215236 | 91 | 0 | 0.0 | 0.0 | 0.00 | 0.00 | 0.00 | 51 | 976.0 |
| 20260504214211 | 91 | 0 | 0.0 | 0.0 | 0.00 | 0.00 | 0.00 | 50 | 976.0 |
| 20260504213147 | 95 | 0 | 0.0 | 0.0 | 0.00 | 0.00 | 0.00 | 44 | 976.0 |
| 20260504212123 | 95 | 0 | 0.0 | 0.0 | 0.00 | 0.00 | 0.00 | 44 | 976.0 |
| 20260504211059 | 95 | 0 | 0.0 | 0.0 | 0.00 | 0.00 | 0.00 | 44 | 976.0 |
| 20260504210034 | 96 | 0 | 0.0 | 0.0 | 0.00 | 0.00 | 0.00 | 43 | 976.0 |
| 20260504205431 | 96 | 0 | 0.0 | 0.0 | 0.00 | 0.00 | 0.00 | 43 | 976.0 |
| 20260504204407 | 96 | 0 | 0.0 | 0.0 | 0.00 | 0.00 | 0.00 | 43 | 976.0 |
| 20260504203343 | 96 | 0 | 0.0 | 0.0 | 0.00 | 0.00 | 0.00 | 43 | 976.0 |
| 20260504202319 | 96 | 0 | 0.0 | 0.0 | 0.00 | 0.00 | 0.00 | 43 | 976.0 |
| 20260504201255 | 96 | 0 | 0.0 | 0.0 | 0.00 | 0.00 | 0.00 | 43 | 976.0 |
| 20260504200230 | 96 | 0 | 0.0 | 0.0 | 0.00 | 0.00 | 0.00 | 42 | 976.0 |
| 20260504195206 | 96 | 0 | 0.0 | 0.0 | 0.00 | 0.00 | 0.00 | 43 | 976.0 |
| 20260504194142 | 96 | 0 | 0.0 | 0.0 | 0.00 | 0.00 | 0.00 | 43 | 977.0 |
| 20260504193118 | 95 | 0 | 0.0 | 0.0 | 0.00 | 0.00 | 0.00 | 43 | 976.0 |
| 20260504192054 | 95 | 0 | 0.0 | 0.0 | 0.00 | 0.00 | 0.00 | 43 | 977.0 |
| 20260504191029 | 95 | 0 | 0.0 | 0.0 | 0.00 | 0.00 | 0.00 | 43 | 977.0 |
| 20260504190005 | 95 | 0 | 0.0 | 0.0 | 0.00 | 0.00 | 0.00 | 43 | 977.0 |
| 20260504184941 | 96 | 0 | 0.0 | 0.0 | 0.00 | 0.00 | 0.00 | 43 | 977.0 |
| 20260504183917 | 95 | 0 | 0.0 | 0.0 | 0.00 | 0.00 | 0.00 | 43 | 977.0 |
| 20260504182853 | 96 | 0 | 0.0 | 0.0 | 0.00 | 0.00 | 0.00 | 43 | 977.0 |
| 20260504181829 | 96 | 0 | 0.0 | 0.0 | 0.00 | 0.00 | 0.00 | 43 | 977.0 |
| 20260504180805 | 96 | 0 | 0.0 | 0.0 | 0.00 | 0.00 | 0.00 | 42 | 977.0 |
| 20260504175740 | 96 | 0 | 0.0 | 0.0 | 0.00 | 0.00 | 0.00 | 42 | 977.0 |
| 20260504174716 | 96 | 0 | 0.0 | 0.0 | 0.00 | 0.00 | 0.00 | 43 | 977.0 |
| 20260504173652 | 96 | 0 | 0.0 | 0.0 | 0.00 | 0.00 | 0.00 | 44 | 977.0 |
| 20260504172627 | 96 | 0 | 0.0 | 0.0 | 0.00 | 0.00 | 0.00 | 42 | 977.0 |
| 20260504171603 | 96 | 0 | 0.0 | 0.0 | 0.00 | 0.00 | 0.00 | 40 | 977.0 |
| 20260504170538 | 96 | 0 | 0.0 | 0.0 | 0.00 | 0.00 | 0.00 | 40 | 977.0 |
| 20260504160312 | 96 | 0 | 0.0 | 0.0 | 0.00 | 0.00 | 0.00 | 38 | 976.0 |
| 20260504151111 | 96 | 0 | 0.0 | 0.0 | 0.00 | 0.00 | 0.00 | 38 | 975.0 |
| 20260504140845 | 97 | 0 | 0.0 | 0.0 | 0.00 | 0.00 | 0.00 | 38 | 974.0 |
| 20260504130620 | 97 | 0 | 0.0 | 0.0 | 0.00 | 0.00 | 0.00 | 37 | 973.0 |
| 20260504110128 | 98 | 0 | 0.0 | 0.0 | 0.00 | 0.00 | 0.00 | 34 | 971.0 |
| 20260504081432 | 96 | 0 | 0.0 | 0.0 | 0.00 | 0.00 | 0.00 | 32 | 972.0 |
| 20260504080408 | 96 | 0 | 0.0 | 0.0 | 0.00 | 0.00 | 0.00 | 32 | 972.0 |
| 20260504070143 | 97 | 0 | 0.0 | 0.0 | 0.00 | 0.00 | 0.00 | 32 | 973.0 |